This is the latest recevied weather packets stored in our database for station/object WC4PEM-13. If no packets are shown the sender has not sent any weather packets the latest 10 day(s).
| Time | Temp. | Humidity | Pressure | Rain* | Wind** | Luminosity | Snow |
|---|---|---|---|---|---|---|---|
| 1777917451 | 26.67° C | 66% | 1016.2 hPa | 0 mm | - | - | - |
| 1777917151 | 26.67° C | 65% | 1016 hPa | 0 mm | - | - | - |
| 1777916851 | 26.67° C | 63% | 1016.1 hPa | 0 mm | - | - | - |
| 1777916551 | 27.22° C | 63% | 1016.2 hPa | 0 mm | - | - | - |
| 1777916251 | 26.67° C | 66% | 1016.1 hPa | 0 mm | - | - | - |
| 1777915951 | 26.11° C | 68% | 1016.2 hPa | 0 mm | - | - | - |
| 1777915651 | 25.56° C | 66% | 1016.3 hPa | 0 mm | - | - | - |
| 1777915351 | 25.56° C | 67% | 1016.4 hPa | 0 mm | - | - | - |
| 1777915051 | 25.56° C | 67% | 1016.4 hPa | 0 mm | - | - | - |
| 1777914751 | 25.56° C | 66% | 1016.5 hPa | 0 mm | - | - | - |
| 1777914451 | 25.56° C | 68% | 1016.6 hPa | 0 mm | - | - | - |
| 1777914151 | 25.56° C | 69% | 1016.7 hPa | 0 mm | - | - | - |
| 1777913851 | 25.56° C | 68% | 1016.7 hPa | 0 mm | - | - | - |
| 1777913551 | 25.56° C | 68% | 1016.6 hPa | 0 mm | - | - | - |
| 1777913251 | 25.56° C | 69% | 1016.8 hPa | 0 mm | - | - | - |
| 1777912951 | 25° C | 69% | 1016.8 hPa | 0 mm | - | - | - |
| 1777912651 | 25° C | 69% | 1016.7 hPa | 0 mm | - | - | - |
| 1777912351 | 25° C | 70% | 1016.8 hPa | 0 mm | - | - | - |
| 1777912051 | 25° C | 69% | 1016.9 hPa | 0 mm | - | - | - |
| 1777911751 | 25° C | 70% | 1017 hPa | 0 mm | - | - | - |
| 1777911451 | 25° C | 70% | 1017 hPa | 0 mm | - | - | - |
| 1777911151 | 25° C | 69% | 1016.9 hPa | 0 mm | - | - | - |
| 1777910851 | 25° C | 69% | 1017 hPa | 0 mm | - | - | - |
| 1777910551 | 25° C | 69% | 1017 hPa | 0 mm | - | - | - |
| 1777910251 | 25° C | 70% | 1017 hPa | 0 mm | - | - | - |
* Rain latest hour (hover to see other rain measurements)
** Current wind speed in m/s (hover to see current wind gust speed)